Weather History for Iron Mountain, MI

Change the Weather History Date:

Friday, September 27, 2013

  Actual Average Record
Temperature  
Mean Temperature 62 °F -  
Max Temperature 75 °F 63 °F 81 °F (1952)
Min Temperature 48 °F 40 °F 22 °F (1957)
Degree Days  
Heating Degree Days 4    
Growing Degree Days 12 (Base 50)    
Moisture  
Dew Point 51 °F    
Average Humidity 84    
Maximum Humidity 100    
Minimum Humidity 44    
Precipitation  
Precipitation 0.00 in - - ()
Sea Level Pressure  
Sea Level Pressure 30.12 in    
Wind  
Wind Speed 4 mph (SSE)    
Max Wind Speed 15 mph    
Max Gust Speed 21 mph    
Visibility 4 miles    
Events Fog    
Averages and records for this station are not official NWS values.
T = Trace of Precipitation, MM = Missing Value Source: NWS Daily Summary

Daily Weather History Graph

Daily Weather History Graph

Search for Another Location

Airport:

Trip Planner

Search our weather history database for the weather conditions in past years. The results will help you decide how hot, cold, wet, or windy it might be!

Date:

Astronomy

Sep. 27, 2013 Rise Set
Actual Time 6:46 AM CDT 6:39 PM CDT
Civil Twilight 6:16 AM CDT 7:09 PM CDT
Nautical Twilight 5:41 AM CDT 7:44 PM CDT
Astronomical Twilight 5:06 AM CDT 8:19 PM CDT
Moon No Moon Rise 2:34 PM CDT (9/27)
Length of Visible Light 12h 53m
Length of Day
11h 53m
Last Quarter, 45% of the Moon is Illuminated
Sep 27
Last Quarter
Oct 4
New
Oct 11
First Quarter
Oct 18
Full
Oct 26
Last Quarter

Hourly Weather History & Observations

Time (CDT) Temp. Dew Point Humidity Pressure Visibility Wind Dir Wind Speed Gust Speed Precip Events Conditions
12:08 AM 48.2 °F 48.2 °F 100% 30.12 in 2.5 mi Calm Calm - N/A   Partly Cloudy
12:15 AM 48.2 °F 46.4 °F 93% 30.12 in 1.2 mi Calm Calm - N/A   Mostly Cloudy
12:29 AM 48.2 °F 46.4 °F 93% 30.12 in 3.0 mi SE 3.5 mph - N/A   Mostly Cloudy
12:54 AM 51.1 °F 50.0 °F 96% 30.12 in 2.5 mi SE 4.6 mph - N/A   Overcast
1:00 AM 51.8 °F 51.8 °F 100% 30.12 in 0.8 mi SE 4.6 mph - N/A   Overcast
1:12 AM 51.8 °F 51.8 °F 100% 30.12 in 0.2 mi SE 4.6 mph - N/A Fog Fog
1:28 AM 51.8 °F 51.8 °F 100% 30.13 in 0.2 mi SE 3.5 mph - N/A Fog Fog
1:54 AM 52.0 °F 52.0 °F 100% 30.14 in 0.2 mi SE 3.5 mph - N/A Fog Fog
2:54 AM 52.0 °F 51.1 °F 97% 30.14 in 0.2 mi Calm Calm - N/A Fog Fog
3:01 AM 51.8 °F 51.8 °F 100% 30.13 in 0.5 mi Calm Calm - N/A Fog Fog
3:45 AM 51.8 °F 51.8 °F 100% 30.13 in 0.2 mi Calm Calm - N/A Fog Fog
3:54 AM 51.1 °F 50.0 °F 96% 30.14 in 0.2 mi Calm Calm - N/A Fog Fog
4:26 AM 50.0 °F 50.0 °F 100% 30.14 in 0.2 mi Calm Calm - N/A Fog Fog
4:54 AM 50.0 °F 48.9 °F 96% 30.14 in 0.2 mi Calm Calm - N/A Fog Fog
5:54 AM 48.0 °F 46.9 °F 96% 30.15 in 0.2 mi SSE 3.5 mph - N/A Fog Fog
6:54 AM 48.0 °F 46.9 °F 96% 30.16 in 0.2 mi Calm Calm - N/A Fog Fog
7:27 AM 48.2 °F 46.4 °F 93% 30.14 in 0.2 mi SSE 3.5 mph - N/A Fog Fog
7:54 AM 48.0 °F 48.0 °F 100% 30.16 in 0.2 mi Calm Calm - N/A Fog Fog
8:50 AM 50.0 °F 50.0 °F 100% 30.15 in 0.5 mi Calm Calm - N/A Fog Fog
8:54 AM 51.1 °F 50.0 °F 96% 30.17 in 0.5 mi Calm Calm - N/A Fog Fog
9:10 AM 51.8 °F 51.8 °F 100% 30.15 in 0.8 mi SSE 4.6 mph - N/A   Overcast
9:20 AM 53.6 °F 53.6 °F 100% 30.15 in 1.8 mi SSE 5.8 mph - N/A   Overcast
9:23 AM 53.6 °F 53.6 °F 100% 30.15 in 3.0 mi SSE 6.9 mph - N/A   Mostly Cloudy
9:40 AM 55.4 °F 53.6 °F 94% 30.15 in 7.0 mi SSE 5.8 mph - N/A   Partly Cloudy
9:54 AM 57.0 °F 55.0 °F 93% 30.17 in 9.0 mi SE 5.8 mph - N/A   Clear
10:54 AM 66.0 °F 55.0 °F 68% 30.16 in 10.0 mi SSE 5.8 mph - N/A   Clear
11:54 AM 70.0 °F 55.0 °F 59% 30.13 in 10.0 mi SSE 9.2 mph - N/A   Clear
12:54 PM 73.9 °F 54.0 °F 50% 30.12 in 10.0 mi SSE 12.7 mph 18.4 mph N/A   Clear
1:54 PM 75.0 °F 55.0 °F 50% 30.10 in 10.0 mi SSE 11.5 mph 19.6 mph N/A   Clear
2:54 PM 75.0 °F 54.0 °F 48% 30.08 in 10.0 mi South 12.7 mph - N/A   Clear
3:54 PM 75.0 °F 52.0 °F 44% 30.07 in 10.0 mi SSE 11.5 mph - N/A   Clear
4:54 PM 73.9 °F 54.0 °F 50% 30.06 in 10.0 mi SSE 9.2 mph 17.3 mph N/A   Clear
5:54 PM 71.1 °F 54.0 °F 55% 30.07 in 10.0 mi SSE 15.0 mph 20.7 mph N/A   Clear
6:54 PM 66.0 °F 53.1 °F 63% 30.06 in 10.0 mi SE 10.4 mph - N/A   Clear
7:54 PM 63.0 °F 55.0 °F 75% 30.07 in 10.0 mi SSE 10.4 mph - N/A   Clear
8:54 PM 61.0 °F 52.0 °F 72% 30.10 in 10.0 mi SSE 5.8 mph - N/A   Clear
9:54 PM 61.0 °F 48.9 °F 64% 30.09 in 10.0 mi SSE 6.9 mph - N/A   Clear
10:54 PM 60.1 °F 46.0 °F 60% 30.08 in 10.0 mi SSE 6.9 mph - N/A   Clear
11:54 PM 55.0 °F 45.0 °F 69% 30.07 in 10.0 mi SSE 4.6 mph - N/A   Clear